Location: Unspecified
(35.6961°N, 0.0000°E)
Time: 12:43:00
(UTC+00:00)

A-11 Canister half - Visible Passes

Search period start: 19 May 2019 00:00
Search period end: 29 May 2019 00:00
Orbit: 1524 x 1684 km, 47.3° (Epoch: 16 May)

Date Brightness Start Highest point End Pass type
(mag) Time Alt. Az. Time Alt. Az. Time Alt. Az.
19 May 9.3 19:11:58 10° NW 19:21:51 76° NNE 19:32:00 10° ESE visible
19 May 9.8 21:17:35 10° WNW 21:26:34 39° SW 21:31:07 27° S visible
20 May 9.8 20:55:53 10° WNW 21:04:57 42° SW 21:10:45 23° S visible
21 May 9.8 20:34:10 10° WNW 20:43:20 44° SW 20:50:27 18° SSE visible
22 May 9.8 20:12:28 10° WNW 20:21:45 47° SW 20:30:11 14° SSE visible
23 May 9.7 19:50:48 10° WNW 20:00:08 49° SW 20:09:41 10° SSE visible
24 May 9.7 19:29:07 10° WNW 19:38:31 52° SW 19:48:08 10° SSE visible
24 May 11.0 21:40:12 10° WSW 21:42:05 11° WSW 21:43:59 10° SW visible
25 May 11.0 21:17:21 10° WSW 21:20:32 12° WSW 21:23:43 10° SW visible
26 May 11.0 20:54:58 10° W 20:58:58 13° WSW 21:03:00 10° SSW visible
27 May 11.0 20:32:44 10° W 20:37:24 14° WSW 20:42:07 10° SSW visible
28 May 11.0 20:10:37 10° W 20:15:50 16° WSW 20:21:07 10° SSW visible
